Regional Weather Roundup
Issued by NWS Bismarck, ND

Home | Current Version | Previous Version | Text Only | Print | Product List | Glossary On
Versions: 1 2 3 4 5 6 7 8 9 10 11 12 13 14 15 16 17 18 19 20 21 22 23 24 25 26 27 28 29 30 31 32 33 34 35 36 37 38 39 40 41 42 43 44 45 46 47 48 49 50
000
ASUS43 KBIS 221420
RWRBIS

NWR BROADCAST TEXT
NATIONAL WEATHER SERVICE BISMARCK ND
800 AM CST SAT NOV 22 2014

NOTE: "FAIR" INDICATES FEW OR NO CLOUDS BELOW 12,000 FEET WITH NO
SIGNIFICANT WEATHER AND/OR OBSTRUCTIONS TO VISIBILITY.


CITY           SKY/WX    TMP DP  RH WIND       PRES   REMARKS
WILLISTON      CLOUDY    30  27  88 W3        29.42F
MINOT          PTCLDY    25  22  88 SE6       29.47F WCI  18
MINOT AFB      PTCLDY    20  20  98 S7        29.47F WCI  11
BISMARCK       CLEAR     25  22  88 CALM      29.54F
DICKINSON      CLOUDY    33  25  72 S10       29.43F
GARRISON         N/A     30  27  88 SE6       29.48F
HETTINGER ARPT CLOUDY    26  21  81 E3        29.48F
JAMESTOWN      CLEAR     23  21  92 S5        29.56F WCI  17
BEACH          CLOUDY    32  27  80 S14       29.42F
CROSBY         FAIR      32  32 100 S13       29.40F
HARVEY         FAIR      18  18 100 SE6       29.52F WCI   9
HAZEN          FAIR      23  19  86 CALM      29.50F
LINTON         FAIR      23  23 100 E8        29.55F WCI  14
MANDAN         FAIR      28  25  86 S12       29.52F WCI  18
OAKES            N/A     19  19 100 S10       29.62F WCI   8
RUGBY          FAIR      19  19 100 SE6       29.51F WCI  11
STANLEY        PTSUNNY   27  27 100 SE3       29.44F
TIOGA          FAIR      25  25 100 E3        29.45F
$$

CITY           SKY/WX    TMP DP  RH WIND       PRES   REMARKS
GRAND FORKS    PTCLDY    19  16  88 S6        29.60R WCI  11
GRAND FORKS AF NOT AVBL
DEVILS LAKE    CLEAR     25  16  68 SE6       29.53F WCI  18
FARGO          CLEAR     23  20  88 S5        29.64S WCI  17
CANDO          FOG       16  16 100 SE5       29.54F VSB<1/4 WCI   9
CAVALIER       CLOUDY    32  28  86 N5        29.60S
GRAFTON        CLOUDY    28  27  93 CALM      29.59S
GWINNER        SUNNY     30  27  86 SW15      29.63F WCI  19
LANGDON        CLOUDY    32  28  86 E10       29.54F
ROLLA          FAIR      18  18 100 CALM      29.53S
WALHALLA         N/A     32  32 100 NE8       29.60S
$$

CITY           SKY/WX    TMP DP  RH WIND       PRES   REMARKS
ABERDEEN       CLEAR     20  17  88 S8        29.65F WCI  10
MOBRIDGE       CLEAR     29  25  85 SE10      29.53F WCI  20
BUFFALO          N/A     30  23  75 SW3       29.41S
RAPID CITY     MOCLDY    45  24  43 W12G21    29.51F
GLASGOW        CLOUDY    35  29  78 SE15      29.31F
SIDNEY         CLOUDY    30  27  86 SE6       29.42F
WOLF POINT     CLOUDY    32  28  85 NE5       29.37F
GLENDIVE       CLOUDY    32  27  80 CALM      29.42S
MILES CITY     CLOUDY    34  27  75 S16       29.40F
BAKER          CLOUDY    30  25  81 E7        29.44F
$$

CITY           SKY/WX    TMP DP  RH WIND       PRES   REMARKS
BILLINGS       CLOUDY    44  26  49 SW15      29.41F
GREAT FALLS    PTCLDY    45  34  65 SW28G38   29.27F
REGINA         FOG       32  32 100 SE15G23   29.36F VSB 1
ESTEVAN        CLOUDY    25  23  93 E9        29.42F WCI  15
$$



USA.gov is the U.S. government's official web portal to all federal, state and local government web resources and services.